KF5WOE-13 Weather Reports


time (UTC)temp
C
wind
direction
speed
KPH
gust
KPH
rain 1hr
cm
rain 24hr
cm
rain mn
cm
humidity
%
barometer
mb
20260906224233 60 137 0.0 0.0 0.00 0.00 0.00 1009.3
20260906223730 60 93 6.4 12.9 0.00 0.00 0.00 1009.6
20260906223225 60 127 0.0 0.0 0.00 0.00 0.00 1009.3
20260906222723 60 51 14.5 20.9 0.00 0.00 0.00 1009.6
20260906222222 60 72 3.2 4.8 0.00 0.00 0.00 1009.3
20260906221720 60 193 0.0 0.0 0.00 0.00 0.00 1009.5
20260906221215 60 84 0.0 0.0 0.00 0.00 0.00 1009.7
20260906220709 60 64 1.6 8.0 0.00 0.00 0.00 1009.8
20260906220204 60 103 11.3 12.9 0.00 0.00 0.00 1009.8
20260906215704 60 94 8.0 12.9 0.00 0.00 0.00 1009.6
20260906215203 60 82 0.0 0.0 0.00 0.00 0.00 1010.1
20260906214701 60 67 0.0 3.2 0.00 0.00 0.00 1009.9
20260906214156 60 90 8.0 9.7 0.00 0.00 0.00 1009.8
20260906213655 60 102 17.7 20.9 0.00 0.00 0.00 1010.1
20260906213150 60 37 0.0 0.0 0.00 0.00 0.00 1009.9
20260906212648 60 76 8.0 14.5 0.00 0.00 0.00 1009.9
20260906212143 60 109 0.0 0.0 0.00 0.00 0.00 1010.1
20260906211643 60 78 0.0 0.0 0.00 0.00 0.00 1010.3
20260906211138 60 71 4.8 11.3 0.00 0.00 0.00 1010.4
20260906210634 60 49 0.0 1.6 0.00 0.00 0.00 1010.4
20260906210128 60 92 0.0 0.0 0.00 0.00 0.00 1010.4
20260906205623 60 31 9.7 16.1 0.00 0.00 0.00 1010.2
20260906205115 60 57 1.6 8.0 0.00 0.00 0.00 1010.5
20260906204614 60 45 12.9 17.7 0.00 0.00 0.00 1010.4
20260906204109 60 56 8.0 11.3 0.00 0.00 0.00 1010.3
20260906203608 60 47 9.7 12.9 0.00 0.00 0.00 1010.5
20260906203103 60 58 1.6 4.8 0.00 0.00 0.00 1010.5
20260906202559 60 89 0.0 0.0 0.00 0.00 0.00 1010.6
20260906202053 60 104 12.9 14.5 0.00 0.00 0.00 1010.6
20260906201548 60 218 4.8 8.0 0.00 0.00 0.00 1010.8
20260906201048 60 106 12.9 16.1 0.00 0.00 0.00 1010.7
20260906200544 60 81 0.0 0.0 0.00 0.00 0.00 1010.8
20260906200040 60 64 9.7 14.5 0.00 0.00 0.00 1011.1
20260906195535 60 100 16.1 20.9 0.00 0.00 0.00 1011.1
20260906195031 60 357 0.0 3.2 0.00 0.00 0.00 1011.3
20260906194527 60 101 1.6 4.8 0.00 0.00 0.00 1011.1
20260906194022 60 163 6.4 14.5 0.00 0.00 0.00 1011.1
20260906193522 60 140 6.4 16.1 0.00 0.00 0.00 1011.2
20260906193018 60 67 3.2 8.0 0.00 0.00 0.00 1011.3
20260906192513 60 31 0.0 3.2 0.00 0.00 0.00 1011.4
20260906192012 60 65 6.4 11.3 0.00 0.00 0.00 1011.9
20260906191507 60 60 14.5 17.7 0.00 0.00 0.00 1011.6
20260906191006 60 121 8.0 14.5 0.00 0.00 0.00 1011.5
20260906190505 60 85 4.8 11.3 0.00 0.00 0.00 1011.5
20260906190000 60 102 0.0 0.0 0.00 0.00 0.00 1011.6
20260906185459 60 90 8.0 11.3 0.00 0.00 0.00 1011.9
20260906184958 60 101 1.6 4.8 0.00 0.00 0.00 1011.6
20260906184454 60 81 8.0 12.9 0.00 0.00 0.00 1011.8
20260906183949 60 109 12.9 14.5 0.00 0.00 0.00 1011.8
20260906183444 60 96 20.9 24.1 0.00 0.00 0.00 1011.9
20260906182940 60 347 14.5 20.9 0.00 0.00 0.00 1012.0
20260906182436 60 76 17.7 22.5 0.00 0.00 0.00 1011.9
20260906181932 60 56 4.8 11.3 0.00 0.00 0.00 1011.9
20260906181427 60 103 17.7 20.9 0.00 0.00 0.00 1012.2
20260906180922 60 150 0.0 0.0 0.00 0.00 0.00 1012.6
20260906180417 60 88 14.5 17.7 0.00 0.00 0.00 1012.4
20260906175915 60 82 16.1 17.7 0.00 0.00 0.00 1012.4
20260906175410 60 99 1.6 9.7 0.00 0.00 0.00 1012.4
20260906174909 60 140 8.0 9.7 0.00 0.00 0.00 1012.5
20260906174409 60 111 8.0 11.3 0.00 0.00 0.00 1012.7
20260906173903 60 38 1.6 8.0 0.00 0.00 0.00 1012.8
20260906173359 60 84 3.2 9.7 0.00 0.00 0.00 1012.9
20260906172858 60 101 9.7 11.3 0.00 0.00 0.00 1012.8
20260906172355 60 73 4.8 9.7 0.00 0.00 0.00 1013.1
20260906171854 60 95 0.0 0.0 0.00 0.00 0.00 1013.0
20260906171344 60 94 3.2 11.3 0.00 0.00 0.00 1012.9
20260906170840 60 68 3.2 9.7 0.00 0.00 0.00 1013.3
20260906170335 60 119 8.0 12.9 0.00 0.00 0.00 1013.4
20260906165832 60 88 3.2 12.9 0.00 0.00 0.00 1013.3
20260906165331 60 71 0.0 1.6 0.00 0.00 0.00 1013.1
20260906164826 60 8 8.0 12.9 0.00 0.00 0.00 1013.5
20260906164325 60 32 0.0 0.0 0.00 0.00 0.00 1013.7
20260906163821 60 86 0.0 0.0 0.00 0.00 0.00 1013.8
20260906163317 60 65 6.4 9.7 0.00 0.00 0.00 1013.4
20260906162815 60 90 11.3 16.1 0.00 0.00 0.00 1013.4
20260906162314 60 80 0.0 0.0 0.00 0.00 0.00 1013.6
20260906161809 60 40 0.0 0.0 0.00 0.00 0.00 1013.6
20260906161308 60 71 0.0 0.0 0.00 0.00 0.00 1013.7
20260906160807 60 46 0.0 0.0 0.00 0.00 0.00 1013.4
20260906160301 60 103 14.5 14.5 0.00 0.00 0.00 1013.3
20260906155759 60 72 0.0 0.0 0.00 0.00 0.00 1013.6
20260906155248 60 85 0.0 0.0 0.00 0.00 0.00 1013.5
20260906154744 60 81 0.0 0.0 0.00 0.00 0.00 1013.6
20260906154238 60 108 0.0 0.0 0.00 0.00 0.00 1013.5
20260906153737 60 85 0.0 0.0 0.00 0.00 0.00 1013.5
20260906153231 60 150 0.0 0.0 0.00 0.00 0.00 1013.7
20260906152727 60 217 0.0 0.0 0.00 0.00 0.00 1013.6
20260906152221 60 169 0.0 0.0 0.00 0.00 0.00 1013.4
20260906151721 60 168 0.0 0.0 0.00 0.00 0.00 1013.6
20260906151217 60 164 0.0 0.0 0.00 0.00 0.00 1013.6
20260906150712 60 277 0.0 0.0 0.00 0.00 0.00 1013.5
20260906150207 60 139 0.0 0.0 0.00 0.00 0.00 1013.8
20260906145706 60 201 0.0 0.0 0.00 0.00 0.00 1013.8
20260906145205 60 146 0.0 0.0 0.00 0.00 0.00 1013.7
20260906144700 60 86 0.0 0.0 0.00 0.00 0.00 1013.5
20260906144155 60 65 0.0 0.0 0.00 0.00 0.00 1013.5
20260906143655 60 155 0.0 0.0 0.00 0.00 0.00 1013.6
20260906143152 60 123 0.0 0.0 0.00 0.00 0.00 1013.3
20260906142652 60 77 0.0 0.0 0.00 0.00 0.00 1013.3
20260906142147 60 107 0.0 0.0 0.00 0.00 0.00 1013.8
20260906141646 60 67 0.0 0.0 0.00 0.00 0.00 1013.6
20260906141141 60 87 0.0 0.0 0.00 0.00 0.00 1013.8
20260906140640 60 125 0.0 0.0 0.00 0.00 0.00 1013.6
20260906140135 60 107 0.0 0.0 0.00 0.00 0.00 1013.7
20260906135632 60 119 0.0 0.0 0.00 0.00 0.00 1013.8
20260906135128 60 114 0.0 0.0 0.00 0.00 0.00 1013.4
20260906134624 60 99 0.0 0.0 0.00 0.00 0.00 1013.6
20260906134119 60 92 0.0 0.0 0.00 0.00 0.00 1013.4
20260906133615 60 106 0.0 0.0 0.00 0.00 0.00 1013.7
20260906133115 60 77 0.0 0.0 0.00 0.00 0.00 1013.6
20260906132609 60 82 0.0 0.0 0.00 0.00 0.00 1013.5
20260906132105 60 58 0.0 0.0 0.00 0.00 0.00 1013.5
20260906131601 60 73 0.0 0.0 0.00 0.00 0.00 1013.3
20260906131056 60 65 0.0 0.0 0.00 0.00 0.00 1013.5
20260906130550 60 34 0.0 0.0 0.00 0.00 0.00 1013.4
20260906130045 60 60 0.0 0.0 0.00 0.00 0.00 1013.3
20260906125542 60 52 0.0 0.0 0.00 0.00 0.00 1013.4
20260906125037 60 69 0.0 0.0 0.00 0.00 0.00 1013.3
20260906124532 60 78 0.0 0.0 0.00 0.00 0.00 1013.3
20260906124027 60 69 0.0 0.0 0.00 0.00 0.00 1013.1
20260906123526 60 63 0.0 0.0 0.00 0.00 0.00 1013.0
20260906123021 60 65 0.0 0.0 0.00 0.00 0.00 1013.2
20260906122515 60 54 0.0 0.0 0.00 0.00 0.00 1013.2
20260906122012 60 56 0.0 0.0 0.00 0.00 0.00 1013.1
20260906121508 60 45 0.0 0.0 0.00 0.00 0.00 1012.9
20260906121004 60 18 0.0 0.0 0.00 0.00 0.00 1013.0
20260906120504 60 313 0.0 0.0 0.00 0.00 0.00 1013.0
20260906120000 60 313 0.0 0.0 0.00 0.00 0.00 1012.8
20260906115456 60 311 0.0 0.0 0.00 0.00 0.00 1012.7
20260906114955 60 310 0.0 0.0 0.00 0.00 0.00 1012.8
20260906114451 60 310 0.0 0.0 0.00 0.00 0.00 1012.4
20260906113947 60 309 0.0 0.0 0.00 0.00 0.00 1012.6
20260906113445 60 309 0.0 0.0 0.00 0.00 0.00 1012.4
20260906112941 60 305 0.0 0.0 0.00 0.00 0.00 1012.5
20260906112436 60 304 0.0 0.0 0.00 0.00 0.00 1012.5
20260906111932 60 305 0.0 0.0 0.00 0.00 0.00 1012.4
20260906111431 60 243 0.0 0.0 0.00 0.00 0.00 1012.3
20260906110926 60 217 0.0 0.0 0.00 0.00 0.00 1012.4
20260906110422 60 211 0.0 0.0 0.00 0.00 0.00 1012.2
20260906105920 60 204 0.0 0.0 0.00 0.00 0.00 1012.4
20260906105417 60 206 0.0 0.0 0.00 0.00 0.00 1012.4
20260906104912 60 213 0.0 0.0 0.00 0.00 0.00 1012.5
20260906104411 60 212 0.0 0.0 0.00 0.00 0.00 1012.3
20260906103910 60 225 0.0 0.0 0.00 0.00 0.00 1012.1
20260906103408 60 258 0.0 0.0 0.00 0.00 0.00 1012.2
20260906102904 60 258 0.0 0.0 0.00 0.00 0.00 1012.1
20260906102403 60 259 0.0 0.0 0.00 0.00 0.00 1012.2
20260906101858 60 259 0.0 0.0 0.00 0.00 0.00 1012.2
20260906101353 60 258 0.0 0.0 0.00 0.00 0.00 1012.4
20260906100849 60 259 0.0 0.0 0.00 0.00 0.00 1012.3
20260906100348 60 263 0.0 0.0 0.00 0.00 0.00 1012.1
20260906095843 60 267 0.0 0.0 0.00 0.00 0.00 1012.3
20260906095338 60 303 0.0 0.0 0.00 0.00 0.00 1011.9
20260906094838 60 46 0.0 0.0 0.00 0.00 0.00 1012.1
20260906094333 60 72 0.0 0.0 0.00 0.00 0.00 1012.1
20260906093830 60 130 0.0 0.0 0.00 0.00 0.00 1012.2
20260906093325 60 193 0.0 0.0 0.00 0.00 0.00 1011.7
20260906092820 60 203 0.0 0.0 0.00 0.00 0.00 1011.8
20260906092320 60 193 0.0 0.0 0.00 0.00 0.00 1011.9
20260906091815 60 193 0.0 0.0 0.00 0.00 0.00 1011.6
20260906091312 60 192 0.0 0.0 0.00 0.00 0.00 1011.6
20260906090808 60 192 0.0 0.0 0.00 0.00 0.00 1011.7
20260906090307 60 192 0.0 0.0 0.00 0.00 0.00 1011.8
20260906085807 60 192 0.0 0.0 0.00 0.00 0.00 1011.8
20260906085307 60 193 0.0 0.0 0.00 0.00 0.00 1011.6
20260906084800 60 194 0.0 0.0 0.00 0.00 0.00 1011.7
20260906084254 60 235 0.0 0.0 0.00 0.00 0.00 1011.6
20260906083749 60 182 0.0 0.0 0.00 0.00 0.00 1011.5
20260906083245 60 177 0.0 0.0 0.00 0.00 0.00 1011.5
20260906082739 60 148 0.0 0.0 0.00 0.00 0.00 1011.6
20260906082234 60 152 0.0 0.0 0.00 0.00 0.00 1011.7
20260906081731 60 176 0.0 0.0 0.00 0.00 0.00 1011.6
20260906081225 60 135 0.0 0.0 0.00 0.00 0.00 1011.9
20260906080722 60 128 0.0 0.0 0.00 0.00 0.00 1011.6
20260906080218 60 109 0.0 0.0 0.00 0.00 0.00 1012.0
20260906075718 60 213 0.0 0.0 0.00 0.00 0.00 1012.0
20260906075212 60 212 0.0 0.0 0.00 0.00 0.00 1011.9
20260906074708 60 210 0.0 0.0 0.00 0.00 0.00 1012.0
20260906074207 60 212 0.0 0.0 0.00 0.00 0.00 1012.1
20260906073702 60 220 0.0 0.0 0.00 0.00 0.00 1012.0
20260906073157 60 157 0.0 0.0 0.00 0.00 0.00 1011.9
20260906072652 60 130 0.0 0.0 0.00 0.00 0.00 1011.9
20260906072148 60 154 0.0 0.0 0.00 0.00 0.00 1011.8
20260906071644 60 182 0.0 0.0 0.00 0.00 0.00 1011.8
20260906071143 60 154 0.0 0.0 0.00 0.00 0.00 1011.7
20260906070640 60 135 0.0 0.0 0.00 0.00 0.00 1011.6
20260906070136 60 147 0.0 0.0 0.00 0.00 0.00 1011.8
20260906065635 60 146 0.0 0.0 0.00 0.00 0.00 1011.8
20260906065131 60 172 0.0 0.0 0.00 0.00 0.00 1011.9
20260906064626 60 160 0.0 0.0 0.00 0.00 0.00 1011.9
20260906064121 60 124 0.0 0.0 0.00 0.00 0.00 1012.0
20260906063616 60 133 0.0 0.0 0.00 0.00 0.00 1012.2
20260906063112 60 126 0.0 0.0 0.00 0.00 0.00 1012.1
20260906062608 60 147 0.0 0.0 0.00 0.00 0.00 1012.3
20260906062106 60 133 0.0 0.0 0.00 0.00 0.00 1012.3
20260906061603 60 137 0.0 0.0 0.00 0.00 0.00 1012.0
20260906061102 60 137 0.0 0.0 0.00 0.00 0.00 1012.2
20260906060559 60 132 0.0 0.0 0.00 0.00 0.00 1012.5
20260906060056 60 137 0.0 0.0 0.00 0.00 0.00 1012.2
20260906055551 60 139 0.0 0.0 0.00 0.00 0.00 1012.6
20260906055046 60 133 0.0 0.0 0.00 0.00 0.00 1012.5
20260906054541 60 120 0.0 0.0 0.00 0.00 0.00 1012.4
20260906054037 60 100 0.0 0.0 0.00 0.00 0.00 1012.2
20260906053533 60 104 0.0 0.0 0.00 0.00 0.00 1012.2
20260906053028 60 104 0.0 0.0 0.00 0.00 0.00 1012.1
20260906052524 60 144 0.0 0.0 0.00 0.00 0.00 1012.3
20260906052021 60 143 0.0 0.0 0.00 0.00 0.00 1012.3
20260906051516 60 130 0.0 0.0 0.00 0.00 0.00 1012.3
20260906051011 60 97 0.0 0.0 0.00 0.00 0.00 1012.2
20260906050512 60 122 0.0 0.0 0.00 0.00 0.00 1012.1
20260906050007 60 150 0.0 0.0 0.00 0.00 0.00 1012.1
20260906045505 60 144 0.0 0.0 0.00 0.00 0.00 1012.2
20260906045000 60 184 0.0 0.0 0.00 0.00 0.00 1012.1
20260906044450 60 127 0.0 0.0 0.00 0.00 0.00 1012.3
20260906043945 60 151 0.0 0.0 0.00 0.00 0.00 1012.0
20260906043441 60 182 0.0 0.0 0.00 0.00 0.00 1012.2
20260906042937 60 152 0.0 0.0 0.00 0.00 0.00 1011.9
20260906042436 60 134 0.0 0.0 0.00 0.00 0.00 1011.9
20260906041931 60 123 0.0 0.0 0.00 0.00 0.00 1011.5
20260906041427 60 149 0.0 0.0 0.00 0.00 0.00 1011.9
20260906040927 60 130 0.0 0.0 0.00 0.00 0.00 1011.7
20260906040422 60 84 0.0 0.0 0.00 0.00 0.00 1012.0
20260906035917 60 113 0.0 0.0 0.00 0.00 0.00 1012.0
20260906035413 60 154 0.0 0.0 0.00 0.00 0.00 1012.0
20260906034908 60 143 0.0 0.0 0.00 0.00 0.00 1011.6
20260906034408 60 134 0.0 0.0 0.00 0.00 0.00 1011.8
20260906033903 60 106 0.0 0.0 0.00 0.00 0.00 1011.7
20260906033403 60 109 0.0 0.0 0.00 0.00 0.00 1012.0
20260906032859 60 110 0.0 0.0 0.00 0.00 0.00 1011.6
20260906032355 60 114 0.0 0.0 0.00 0.00 0.00 1011.8
20260906031850 60 106 0.0 0.0 0.00 0.00 0.00 1011.7
20260906031340 60 114 0.0 0.0 0.00 0.00 0.00 1011.5
20260906030839 60 116 0.0 0.0 0.00 0.00 0.00 1011.4
20260906030335 60 108 0.0 0.0 0.00 0.00 0.00 1011.5
20260906025834 60 135 0.0 0.0 0.00 0.00 0.00 1011.7
20260906025329 60 87 0.0 0.0 0.00 0.00 0.00 1011.5
20260906024828 60 122 0.0 0.0 0.00 0.00 0.00 1011.4
20260906024327 60 114 0.0 0.0 0.00 0.00 0.00 1011.4
20260906023823 60 118 0.0 0.0 0.00 0.00 0.00 1011.2
20260906023318 60 151 0.0 0.0 0.00 0.00 0.00 1011.0
20260906022814 60 129 0.0 0.0 0.00 0.00 0.00 1011.1
20260906022309 60 149 0.0 0.0 0.00 0.00 0.00 1011.0
20260906021804 60 124 0.0 0.0 0.00 0.00 0.00 1011.2
20260906021303 60 114 0.0 0.0 0.00 0.00 0.00 1011.0
20260906020758 60 132 3.2 12.9 0.00 0.00 0.00 1010.7
20260906020258 60 132 4.8 8.0 0.00 0.00 0.00 1010.7
20260906015752 60 101 1.6 3.2 0.00 0.00 0.00 1010.5
20260906015251 60 113 0.0 0.0 0.00 0.00 0.00 1010.4
20260906014746 60 80 0.0 0.0 0.00 0.00 0.00 1010.2
20260906014241 60 72 0.0 0.0 0.00 0.00 0.00 1010.1
20260906013737 60 84 0.0 0.0 0.00 0.00 0.00 1010.2
20260906013237 60 84 0.0 0.0 0.00 0.00 0.00 1010.1
20260906012732 60 86 0.0 0.0 0.00 0.00 0.00 1010.0
20260906012228 60 79 0.0 0.0 0.00 0.00 0.00 1009.9
20260906011723 60 98 0.0 0.0 0.00 0.00 0.00 1009.8
20260906011223 60 95 0.0 0.0 0.00 0.00 0.00 1009.7
20260906010718 60 88 0.0 0.0 0.00 0.00 0.00 1009.9
20260906010214 60 95 0.0 0.0 0.00 0.00 0.00 1009.8
20260906005709 60 83 0.0 0.0 0.00 0.00 0.00 1010.0
20260906005209 60 84 0.0 0.0 0.00 0.00 0.00 1009.8
20260906004707 60 68 0.0 0.0 0.00 0.00 0.00 1009.7
20260906004202 60 92 0.0 0.0 0.00 0.00 0.00 1009.7
20260906003657 60 79 0.0 0.0 0.00 0.00 0.00 1009.9
20260906003154 60 89 0.0 0.0 0.00 0.00 0.00 1009.5
20260906002654 60 109 0.0 0.0 0.00 0.00 0.00 1009.4
20260906002148 60 90 0.0 1.6 0.00 0.00 0.00 1009.6
20260906001644 60 85 0.0 0.0 0.00 0.00 0.00 1009.7
20260906001144 60 87 0.0 0.0 0.00 0.00 0.00 1009.4
20260906000639 60 106 4.8 9.7 0.00 0.00 0.00 1009.5
20260906000135 60 79 0.0 4.8 0.00 0.00 0.00 1009.5
20260905235633 60 110 0.0 0.0 0.00 0.00 0.00 1009.3
20260905235129 60 74 0.0 1.6 0.00 0.00 0.00 1009.5
20260905234624 60 80 1.6 4.8 0.00 0.00 0.00 1009.5
20260905234119 60 46 1.6 8.0 0.00 0.00 0.00 1009.6
20260905233614 60 92 8.0 11.3 0.00 0.00 0.00 1009.2
20260905233108 60 47 0.0 0.0 0.00 0.00 0.00 1009.2
20260905232604 60 72 0.0 0.0 0.00 0.00 0.00 1009.3
20260905232100 60 116 0.0 0.0 0.00 0.00 0.00 1009.4
20260905231554 60 91 6.4 11.3 0.00 0.00 0.00 1009.1
20260905231051 60 77 11.3 14.5 0.00 0.00 0.00 1009.8
20260905230551 60 86 11.3 12.9 0.00 0.00 0.00 1009.3
20260905230049 60 63 0.0 0.0 0.00 0.00 0.00 1009.4
20260905225549 60 49 0.0 0.0 0.00 0.00 0.00 1009.2
20260905225044 60 73 0.0 0.0 0.00 0.00 0.00 1009.1